LUCH 5V

Last updated on Thu Nov 21 2024 00:02:30 GMT+0000 (Coordinated Universal Time)

1 39727U 14023A 24325.49668580 -.00000267 00000+0 00000+0 0 9994 2 39727 3.6930 74.8575 0004653 190.6702 68.0313 1.00271121 38603
UTC large
Height (km)
Speed (km/s)
/
Latitude / Longitude
Inclination (degrees)
Orbital Period (minutes)
Azimuth
Elevation
Range (km)
Doppler Factor

Next 0 passes for location: London (51.5072 / 0.1276)

Sorry there are no passes over London.